Location: Chiroubles
(46.1812°N, 4.6660°E)
Time: 01:07:06
(UTC+00:00)

Terra - Pass Details

Date: 15 August 2020
Orbit: 701 x 703 km, 98.2° (Epoch: 19 September)

Event Time Altitude Azimuth Distance (km) Brightness Sun altitude
Exits shadow 20:28:48 19° 93° (E) 1,650 3.3 -15.6°
Maximum altitude 20:30:31 23° 63° (ENE) 1,474 3.3 -15.8°
Drops below altitude 10° 20:34:14 10° 12° (NNE) 2,181 4.7 -16.3°
Sets 20:36:53 0° 358° (N) 3,104 5.8 -16.6°
